Weather observations for the past three days for
Monroe, Monroe Airport
| Date | Time (edt) | Wind (mph) | Vis. (mi.) | Weather | Sky Cond. | Temperature (ºF) | Relative Humidity | Wind Chill (°F) | Heat Index (°F) | Pressure | Precipitation (in) | ||||||
|---|---|---|---|---|---|---|---|---|---|---|---|---|---|---|---|---|---|
| Air | Dwpt | 6 hour | altimeter (in) | sea level (mb) | 1 hr | 3 hr | 6 hr | ||||||||||
| Max. | Min. | ||||||||||||||||
| 05 | 17:53 | SW 14 | 10.00 | A Few Clouds | FEW070 | 79 | 48.9 | 35% | 79 | 29.94 | 1014.3 | ||||||
| 05 | 16:53 | S 9 G 16 | 10.00 | A Few Clouds | FEW075 | 78.1 | 48.9 | 36% | 79 | 29.95 | 1014.6 | ||||||
| 05 | 15:53 | Vrbl 6 | 10.00 | Partly Cloudy | SCT075 | 78.1 | 48 | 35% | 78 | 29.97 | 1015.0 | ||||||
| 05 | 14:53 | SW 13 | 10.00 | A Few Clouds | FEW070 | 80.1 | 48 | 33% | 79 | 29.99 | 1015.7 | ||||||
| 05 | 13:53 | SW 12 G 22 | 10.00 | Fair | CLR | 79 | 48 | 79 | 57.9 | 34% | 79 | 30.01 | 1016.4 | ||||
| 05 | 12:53 | SW 6 G 22 | 10.00 | Fair | CLR | 78.1 | 48.9 | 36% | 79 | 30.02 | 1016.7 | ||||||
| 05 | 11:53 | W 9 | 10.00 | Fair | CLR | 75 | 54 | 48% | 78 | 30.04 | 1017.4 | ||||||
| 05 | 10:53 | SW 10 | 10.00 | Fair | CLR | 71.1 | 55 | 57% | 30.04 | 1017.6 | |||||||
| 05 | 09:53 | W 14 | 10.00 | Fair | CLR | 68 | 55 | 63% | 30.04 | 1017.6 | |||||||
| 05 | 08:53 | SW 13 | 10.00 | Fair | CLR | 63 | 53.1 | 70% | 30.04 | 1017.7 | |||||||
| 05 | 07:53 | SW 6 | 10.00 | Fair | CLR | 57.9 | 51.1 | 60.1 | 52 | 78% | 30.03 | 1017.3 | |||||
| 05 | 06:53 | Calm | 10.00 | Fair | CLR | 53.1 | 48.9 | 86% | 30.02 | 1017.1 | |||||||
| 05 | 05:53 | Calm | 10.00 | Fair | CLR | 54 | 48.9 | 83% | 30 | 1016.4 | |||||||
| 05 | 04:53 | SW 6 | 10.00 | Fair | CLR | 57 | 48.9 | 74% | 29.99 | 1015.9 | |||||||
| 05 | 03:53 | SW 8 | 10.00 | Fair | CLR | 57.9 | 48 | 70% | 29.99 | 1015.7 | |||||||
| 05 | 02:53 | SW 8 | 10.00 | Fair | CLR | 59 | 48 | 67% | 29.98 | 1015.5 | |||||||
| 05 | 01:53 | SW 8 | 10.00 | Fair | CLR | 60.1 | 48 | 72 | 60.1 | 65% | 29.99 | 1015.8 | |||||
| 05 | 00:53 | SW 9 | 10.00 | Fair | CLR | 62.1 | 46.9 | 58% | 29.99 | 1016.0 | |||||||
| 04 | 23:53 | S 9 G 18 | 10.00 | Fair | CLR | 64 | 46 | 52% | 30 | 1016.1 | |||||||
| 04 | 22:53 | S 7 | 10.00 | Fair | CLR | 66 | 43 | 43% | 29.99 | 1015.9 | |||||||
| 04 | 21:53 | S 5 | 10.00 | Fair | CLR | 66 | 42.1 | 42% | 29.98 | 1015.7 | |||||||
| 04 | 20:53 | S 5 | 10.00 | Fair | CLR | 68 | 37 | 32% | 29.96 | 1015.1 | |||||||
| 04 | 19:53 | S 6 | 10.00 | Fair | CLR | 72 | 37 | 79 | 72 | 28% | 29.95 | 1014.8 | |||||
| 04 | 18:53 | S 8 G 22 | 10.00 | Fair | CLR | 75.9 | 39.9 | 27% | 77 | 29.94 | 1014.4 | ||||||
| 04 | 17:53 | Vrbl 6 G 20 | 10.00 | Fair | CLR | 78.1 | 39.9 | 26% | 78 | 29.94 | 1014.2 | ||||||
| 04 | 16:53 | SW 12 G 17 | 10.00 | Fair | CLR | 78.1 | 37 | 23% | 78 | 29.94 | 1014.4 | ||||||
| 04 | 15:53 | Calm | 10.00 | Fair | CLR | 77 | 39 | 26% | 77 | 29.96 | 1015.0 | ||||||
| 04 | 14:53 | Calm | 10.00 | Fair | CLR | 75.9 | 39.9 | 27% | 77 | 29.98 | 1015.8 | ||||||
| 04 | 13:53 | Vrbl 3 | 10.00 | Fair | CLR | 73.9 | 41 | 75.9 | 51.1 | 31% | 30 | 1016.4 | |||||
| 04 | 12:53 | SW 8 | 10.00 | Fair | CLR | 73 | 39.9 | 30% | 30.02 | 1017.0 | |||||||
| 04 | 11:53 | Vrbl 6 | 10.00 | Fair | CLR | 71.1 | 42.1 | 35% | 30.04 | 1018.0 | |||||||
| 04 | 10:53 | Vrbl 6 | 10.00 | Fair | CLR | 68 | 43 | 40% | 30.05 | 1018.1 | |||||||
| 04 | 09:53 | Vrbl 3 | 10.00 | Fair | CLR | 63 | 46 | 54% | 30.05 | 1018.4 | |||||||
| 04 | 08:53 | W 7 | 10.00 | Fair | CLR | 57 | 46 | 67% | 30.04 | 1018.0 | |||||||
| 04 | 07:53 | SW 6 | 10.00 | Fair | CLR | 51.1 | 46.9 | 55.9 | 46 | 86% | 30.05 | 1018.3 | |||||
| 04 | 06:53 | SW 5 | 10.00 | Fair | CLR | 46.9 | 44.1 | 90% | 45 | 30.03 | 1017.9 | ||||||
| 04 | 05:53 | SW 5 | 10.00 | Fair | CLR | 48 | 43 | 83% | 47 | 30.04 | 1017.9 | ||||||
| 04 | 04:53 | SW 6 | 10.00 | Fair | CLR | 50 | 43 | 77% | 48 | 30.03 | 1017.5 | ||||||
| 04 | 02:53 | Calm | 10.00 | Fair | CLR | 52 | 39.9 | 64% | 30.03 | 1017.5 | |||||||
| 04 | 01:53 | S 5 | 10.00 | Fair | CLR | 55.9 | 39.9 | 63 | 51.1 | 55% | 30.02 | 1017.3 | |||||
| 04 | 00:53 | S 5 | 10.00 | Fair | CLR | 53.1 | 39.9 | 61% | 30.04 | 1018.0 | |||||||
| 03 | 23:53 | SW 6 | 10.00 | Fair | CLR | 53.1 | 41 | 64% | 30.05 | 1018.3 | |||||||
| 03 | 22:53 | S 7 | 10.00 | Fair | CLR | 57.9 | 39.9 | 51% | 30.04 | 1018.0 | |||||||
| 03 | 21:53 | S 5 | 10.00 | Fair | CLR | 57 | 41 | 55% | 30.03 | 1017.6 | |||||||
| 03 | 20:53 | S 3 | 10.00 | Fair | CLR | 59 | 39.9 | 49% | 30.01 | 1017.1 | |||||||
| 03 | 19:53 | S 3 | 10.00 | Fair | CLR | 63 | 39 | 69.1 | 63 | 41% | 30 | 1016.8 | |||||
| 03 | 18:53 | SW 8 | 10.00 | Fair | CLR | 66.9 | 36 | 32% | 30 | 1017.0 | |||||||
| 03 | 17:53 | W 8 | 10.00 | Fair | CLR | 68 | 36 | 31% | 30.01 | 1017.1 | |||||||
| 03 | 16:53 | W 10 | 10.00 | Fair | CLR | 69.1 | 37 | 31% | 30.01 | 1017.4 | |||||||
| 03 | 15:53 | Calm | 10.00 | Fair | CLR | 66.9 | 37 | 33% | 30.03 | 1018.1 | |||||||
| 03 | 14:53 | Vrbl 6 G 18 | 10.00 | Fair | CLR | 66 | 37 | 34% | 30.07 | 1019.2 | |||||||
| 03 | 13:53 | SW 9 | 10.00 | Fair | CLR | 64.9 | 37 | 66 | 50 | 36% | 30.08 | 1019.7 | |||||
| 03 | 12:53 | W 8 G 21 | 10.00 | Fair | CLR | 64 | 36 | 35% | 30.11 | 1020.6 | |||||||
| 03 | 11:53 | Vrbl 6 | 10.00 | Fair | CLR | 61 | 35.1 | 38% | 30.12 | 1021.2 | |||||||
| 03 | 10:53 | N 9 | 10.00 | Fair | CLR | 60.1 | 36 | 41% | 30.13 | 1021.4 | |||||||
| 03 | 09:53 | N 8 | 10.00 | Fair | CLR | 57.9 | 35.1 | 42% | 30.12 | 1021.2 | |||||||
| 03 | 08:53 | N 8 | 10.00 | Fair | CLR | 54 | 36 | 51% | 30.12 | 1021.2 | |||||||
| 03 | 07:53 | N 6 | 10.00 | Fair | CLR | 50 | 37 | 50 | 37.9 | 61% | 48 | 30.11 | 1020.8 | ||||
| 03 | 06:53 | N 5 | 10.00 | Fair | CLR | 39 | 36 | 89% | 36 | 30.09 | 1020.2 | ||||||
| 03 | 05:53 | Calm | 10.00 | Fair | CLR | 39 | 37 | 93% | 30.06 | 1019.3 | |||||||
| 03 | 04:53 | Calm | 10.00 | Fair | CLR | 39.9 | 37.9 | 93% | 30.05 | 1018.8 | |||||||
| 03 | 03:53 | Calm | 10.00 | Fair | CLR | 41 | 39 | 93% | 30.03 | 1018.1 | |||||||
| 03 | 02:53 | Calm | 10.00 | Fair | CLR | 41 | 39.9 | 96% | 30.01 | 1017.5 | |||||||
| 03 | 01:53 | Calm | 10.00 | Fair | CLR | 42.1 | 39.9 | 53.1 | 42.1 | 92% | 30.01 | 1017.4 | |||||
| 03 | 00:53 | Calm | 10.00 | Fair | CLR | 43 | 41 | 93% | 30 | 1017.1 | |||||||
| 02 | 23:53 | Calm | 10.00 | Fair | CLR | 45 | 41 | 86% | 29.99 | 1016.7 | |||||||
| 02 | 22:53 | SW 5 | 10.00 | Partly Cloudy | SCT110 | 44.1 | 39.9 | 85% | 42 | 29.98 | 1016.4 | ||||||
| 02 | 21:53 | Calm | 10.00 | Mostly Cloudy | BKN090 | 48 | 42.1 | 80% | 29.95 | 1015.5 | |||||||
| 02 | 20:53 | Calm | 10.00 | Fair | CLR | 48.9 | 41 | 74% | 29.93 | 1014.8 | |||||||
| 02 | 19:53 | Calm | 10.00 | Fair | CLR | 53.1 | 39.9 | 60.1 | 53.1 | 61% | 29.9 | 1013.5 | |||||
| 02 | 18:53 | Calm | 10.00 | Fair | CLR | 59 | 35.1 | 41% | 29.89 | 1013.0 | |||||||
| Date | Time (edt) | Wind (mph) | Vis. (mi.) | Weather | Sky Cond. | Air | Dwpt | Max. | Min. | Relative Humidity | Wind Chill (°F) | Heat Index (°F) | altimeter (in) | sea level (mb) | 1 hr | 3 hr | 6 hr |
| 6 hour | |||||||||||||||||
| Temperature (ºF) | Pressure | Precipitation (in) | |||||||||||||||